Date String (YYYY-MM-DD hh:mm:ss) UTC,Instrument flags,absolute air pressure of the measurement (hPa),sample flow rate (lpm),inlet stack bypass flow (lpm),air temperature of the measurement (°C),ambient temperature measured by the external sensor (°C),aerosol sample conditioner tube jacket temperature (°C),OPC LED temperature (°C),internal box temperature (°C),relative humidity of the measurement (%),span deviation,mass concentration of particles derived from Lorenz-Mie calculation of OPC scattering (μg/m³),mass concentration of particles derived from Lorenz-Mie calculation of OPC scattering (μg/m³),mass concentration of particles derived from Lorenz-Mie calculation of OPC scattering (μg/m³)
DateTimeUTC,F1_M11,P_M11,Q1_M11,Q2_M11,T1_M11,T2_M11,T3_M11,T4_M11,T5_M11,U1_M11,ZSPAN_M11,X0_M11,X2_M11,X1_M11
2023-09-15 22:00:00,SystemResetWarning,0836.3,5.00,000.00,028.4,027.3,000.0,036.6,030.1,24.9,0000.0,0010.18,0004.10,0003.67
2023-09-15 22:01:00,SystemResetWarning,0836.3,5.00,000.00,028.4,027.3,000.0,036.6,030.1,24.7,0000.0,0009.63,0004.08,0003.66
2023-09-15 22:02:00,SystemResetWarning,0836.3,4.99,000.00,028.4,026.4,000.0,036.6,029.9,24.5,0000.0,0009.51,0004.05,0003.66
2023-09-15 22:03:00,SystemResetWarning,0836.2,5.00,000.00,028.2,024.7,000.0,036.5,029.2,24.5,0000.0,0009.47,0004.07,0003.66
2023-09-15 22:04:00,SystemResetWarning,0836.3,5.00,000.00,028.1,023.9,000.0,036.4,029.1,25.4,0000.0,0009.41,0004.08,0003.68
2023-09-15 22:05:00,SystemResetWarning,0836.2,5.01,000.00,028.0,024.1,000.0,036.4,029.2,25.2,0000.0,0009.44,0004.11,0003.70
2023-09-15 22:06:00,SystemResetWarning,0836.2,5.01,000.00,027.9,024.4,000.0,036.4,029.2,24.4,0000.0,0009.08,0004.15,0003.71
2023-09-15 22:07:00,SystemResetWarning,0836.3,4.99,000.00,027.9,024.8,000.0,036.4,029.3,24.7,0000.0,0009.20,0004.19,0003.71
2023-09-15 22:08:00,SystemResetWarning,0836.3,4.99,000.00,027.9,025.2,000.0,036.3,029.4,24.3,0000.0,0009.54,0004.20,0003.71
2023-09-15 22:09:00,SystemResetWarning,0836.3,5.00,000.00,027.9,025.6,000.0,036.3,029.5,24.3,0000.0,0009.68,0004.22,0003.71
2023-09-15 22:10:00,SystemResetWarning,0836.2,5.01,000.00,027.9,025.9,000.0,036.3,029.5,24.3,0000.0,0008.61,0004.22,0003.72
2023-09-15 22:11:00,SystemResetWarning,0836.3,5.00,000.00,027.9,026.1,000.0,036.3,029.6,24.4,0000.0,0007.73,0004.20,0003.71
2023-09-15 22:12:00,SystemResetWarning,0836.3,5.00,000.00,028.0,026.3,000.0,036.3,029.6,24.7,0000.0,0007.55,0004.20,0003.71
2023-09-15 22:13:00,SystemResetWarning,0836.3,4.99,000.00,028.0,026.5,000.0,036.3,029.7,25.4,0000.0,0007.62,0004.23,0003.71
2023-09-15 22:14:00,SystemResetWarning,0836.2,5.00,000.00,028.0,026.7,000.0,036.3,029.7,25.3,0000.0,0007.74,0004.25,0003.72
2023-09-15 22:15:00,SystemResetWarning,0836.2,4.99,000.00,028.1,026.8,000.0,036.4,029.8,25.3,0000.0,0008.10,0004.22,0003.70
2023-09-15 22:16:00,SystemResetWarning,0836.2,5.00,000.00,028.1,026.9,000.0,036.4,029.8,24.7,0000.0,0008.12,0004.20,0003.68
2023-09-15 22:17:00,SystemResetWarning,0836.3,5.00,000.00,028.1,027.0,000.0,036.4,029.9,24.2,0000.0,0008.11,0004.18,0003.68
2023-09-15 22:18:00,SystemResetWarning,0836.3,5.00,000.00,028.2,027.1,000.0,036.4,029.9,24.6,0000.0,0008.00,0004.18,0003.69
2023-09-15 22:19:00,SystemResetWarning,0836.2,4.99,000.00,028.2,027.1,000.0,036.4,030.0,24.3,0000.0,0007.84,0004.21,0003.71
2023-09-15 22:20:00,SystemResetWarning,0836.2,4.99,000.00,028.2,027.2,000.0,036.4,030.0,23.9,0000.0,0007.72,0004.22,0003.71
2023-09-15 22:21:00,SystemResetWarning,0836.3,5.00,000.00,028.3,027.2,000.0,036.5,030.0,23.7,0000.0,0007.84,0004.22,0003.72
2023-09-15 22:22:00,SystemResetWarning,0836.2,5.01,000.00,028.3,027.3,000.0,036.5,030.1,23.9,0000.0,0008.22,0004.22,0003.72
2023-09-15 22:23:00,SystemResetWarning,0836.2,5.00,000.00,028.4,027.3,000.0,036.5,030.1,23.9,0000.0,0008.24,0004.23,0003.72
2023-09-15 22:24:00,SystemResetWarning,0836.3,5.00,000.00,028.4,027.3,000.0,036.6,030.2,23.8,0000.0,0008.24,0004.22,0003.71
2023-09-15 22:25:00,SystemResetWarning,0836.2,4.99,000.00,028.4,026.2,000.0,036.5,029.9,23.9,0000.0,0008.22,0004.19,0003.70
2023-09-15 22:26:00,SystemResetWarning,0836.2,5.00,000.00,028.3,024.8,000.0,036.5,029.5,24.4,0000.0,0007.89,0004.19,0003.70
2023-09-15 22:27:00,SystemResetWarning,0836.2,5.01,000.00,028.2,024.7,000.0,036.5,029.4,23.9,0000.0,0007.79,0004.17,0003.69
2023-09-15 22:28:00,SystemResetWarning,0836.2,5.00,000.00,028.1,024.9,000.0,036.5,029.4,24.1,0000.0,0007.88,0004.16,0003.68
2023-09-15 22:29:00,SystemResetWarning,0836.2,5.00,000.00,028.1,025.2,000.0,036.4,029.5,24.1,0000.0,0007.96,0004.17,0003.67
2023-09-15 22:30:00,SystemResetWarning,0836.3,4.99,000.00,028.1,025.6,000.0,036.4,029.6,24.5,0000.0,0008.04,0004.15,0003.67
2023-09-15 22:31:00,SystemResetWarning,0836.3,5.01,000.00,028.1,025.9,000.0,036.4,029.7,24.4,0000.0,0008.17,0004.17,0003.67
2023-09-15 22:32:00,SystemResetWarning,0836.2,5.01,000.00,028.1,026.1,000.0,036.4,029.7,24.4,0000.0,0008.03,0004.15,0003.66
2023-09-15 22:33:00,SystemResetWarning,0836.3,5.01,000.00,028.1,026.4,000.0,036.4,029.7,24.9,0000.0,0007.61,0004.15,0003.66
2023-09-15 22:34:00,SystemResetWarning,0836.3,5.00,000.00,028.1,026.6,000.0,036.4,029.8,24.4,0000.0,0007.60,0004.15,0003.66
2023-09-15 22:35:00,SystemResetWarning,0836.3,5.00,000.00,028.2,026.7,000.0,036.4,029.9,24.4,0000.0,0007.64,0004.16,0003.67
2023-09-15 22:36:00,SystemResetWarning,0836.3,5.00,000.00,028.2,026.8,000.0,036.5,029.9,24.3,0000.0,0007.63,0004.17,0003.68
2023-09-15 22:37:00,SystemResetWarning,0836.3,5.00,000.00,028.2,026.9,000.0,036.5,029.9,24.1,0000.0,0007.71,0004.19,0003.68
2023-09-15 22:38:00,SystemResetWarning,0836.3,5.00,000.00,028.3,027.0,000.0,036.5,030.0,24.6,0000.0,0007.89,0004.23,0003.69
2023-09-15 22:39:00,SystemResetWarning,0836.3,5.00,000.00,028.3,027.1,000.0,036.5,030.0,24.2,0000.0,0007.78,0004.24,0003.69
2023-09-15 22:40:00,SystemResetWarning,0836.3,5.00,000.00,028.3,027.2,000.0,036.5,030.0,24.1,0000.0,0007.70,0004.24,0003.69
2023-09-15 22:41:00,SystemResetWarning,0836.3,5.00,000.00,028.4,027.2,000.0,036.5,030.1,24.5,0000.0,0007.62,0004.24,0003.70
2023-09-15 22:42:00,SystemResetWarning,0836.3,5.00,000.00,028.4,027.3,000.0,036.6,030.1,24.4,0000.0,0007.51,0004.27,0003.70
2023-09-15 22:43:00,SystemResetWarning,0836.3,5.00,000.00,028.4,026.4,000.0,036.5,029.9,24.6,0000.0,0007.47,0004.26,0003.71
2023-09-15 22:44:00,SystemResetWarning,0836.2,5.01,000.00,028.3,024.9,000.0,036.5,029.5,25.3,0000.0,0007.44,0004.25,0003.72
2023-09-15 22:45:00,SystemResetWarning,0836.2,5.01,000.00,028.2,024.6,000.0,036.5,029.5,24.4,0000.0,0007.81,0004.26,0003.74
2023-09-15 22:46:00,SystemResetWarning,0836.2,5.00,000.00,028.1,024.8,000.0,036.5,029.4,24.4,0000.0,0008.04,0004.26,0003.74
2023-09-15 22:47:00,SystemResetWarning,0836.2,5.00,000.00,028.1,025.1,000.0,036.5,029.5,24.4,0000.0,0008.25,0004.24,0003.75
2023-09-15 22:48:00,SystemResetWarning,0836.2,5.00,000.00,028.0,025.5,000.0,036.5,029.5,24.5,0000.0,0008.35,0004.24,0003.75
2023-09-15 22:49:00,SystemResetWarning,0836.3,5.00,000.00,028.0,025.8,000.0,036.4,029.6,24.7,0000.0,0008.24,0004.23,0003.76
2023-09-15 22:50:00,SystemResetWarning,0836.3,4.99,000.00,028.1,026.0,000.0,036.4,029.7,24.3,0000.0,0008.25,0004.23,0003.77
2023-09-15 22:51:00,SystemResetWarning,0836.3,5.00,000.00,028.1,026.3,000.0,036.4,029.7,24.2,0000.0,0008.18,0004.21,0003.79
2023-09-15 22:52:00,SystemResetWarning,0836.3,5.00,000.00,028.1,026.5,000.0,036.4,029.8,24.0,0000.0,0008.23,0004.24,0003.80
2023-09-15 22:53:00,SystemResetWarning,0836.3,4.99,000.00,028.1,026.6,000.0,036.4,029.8,24.0,0000.0,0008.21,0004.23,0003.81
2023-09-15 22:54:00,SystemResetWarning,0836.3,5.01,000.00,028.2,026.8,000.0,036.4,029.9,24.1,0000.0,0008.16,0004.21,0003.82
2023-09-15 22:55:00,SystemResetWarning,0836.2,5.01,000.00,028.2,026.9,000.0,036.4,029.9,23.9,0000.0,0008.33,0004.23,0003.83
2023-09-15 22:56:00,SystemResetWarning,0836.3,5.00,000.00,028.2,027.0,000.0,036.5,030.0,24.0,0000.0,0008.14,0004.25,0003.83
2023-09-15 22:57:00,SystemResetWarning,0836.2,5.00,000.00,028.3,027.1,000.0,036.5,030.0,23.9,0000.0,0008.33,0004.27,0003.85
2023-09-15 22:58:00,SystemResetWarning,0836.3,5.00,000.00,028.3,027.2,000.0,036.5,030.0,23.6,0000.0,0008.19,0004.33,0003.87
2023-09-15 22:59:00,SystemResetWarning,0836.2,5.00,000.00,028.3,027.2,000.0,036.5,030.1,23.5,0000.0,0007.98,0004.35,0003.87
